Home   Weather   Fort Fairfield   Past weeks
Flag for USA

Past Weather in Fort Fairfield, Maine, USA — Yesterday and Last 2 Weeks

Now
64 °F

Passing clouds.


Feels Like: 64 °F
Forecast: 69 / 58 °F
Wind: 12 mph from South

Location: Northern Maine Regional Airport

Current Time: Jul 8, 2020 at 1:59:00 am

Latest Report: Jul 8, 2020 at 12:56 am


Visibility: 10 mi

Pressure: 30.08 "Hg

Humidity: 73%

Dew Point: 55 °F

Location of Fort FairfieldLocation

Past Weather in Fort Fairfield — Graph

°F

Fort Fairfield Temperature Yesterday

Maximum temperature yesterday: 79 °F (at 2:56 pm)
Minimum temperature yesterday: 48 °F (at 4:56 am)
Average temperature yesterday: 62 °F

High & Low Weather Summary for the Past Weeks

 TemperatureHumidityPressure
High90 °F (Jun 23, 1:56 pm)100% (Jun 25, 5:24 am)30.25 "Hg (Jun 25, 5:24 am)
Low48 °F (Jul 7, 4:56 am)27% (Jul 4, 5:56 pm)29.64 "Hg (Jun 24, 5:16 pm)
Average67 °F78%29.95 "Hg
* Reported Jun 23 12:56 am — Jul 8 12:56 am, Fort Fairfield. Weather by CustomWeather, © 2020

Note: Actual official high and low records may vary slightly from our data, if they occured in-between our weather recording intervals... More about our weather records

Fort Fairfield Weather History for the Previous 24 Hours

Scroll right to see more
 ConditionsComfort  
Time TempWeatherWind HumidityBarometerVisibility
12:56 am
Wed, Jul 8
64 °FPassing clouds.12 mph73%30.08 "Hg10 mi
11:56 pm
Tue, Jul 7
66 °FPassing clouds.8 mph70%30.09 "Hg10 mi
10:56 pm68 °FOvercast.10 mph68%30.09 "Hg10 mi
9:56 pm70 °FOvercast.15 mph68%30.09 "Hg10 mi
8:56 pm72 °FPassing clouds.9 mph64%30.09 "Hg10 mi
7:56 pm72 °FSunny.7 mph61%30.09 "Hg10 mi
6:56 pm75 °FSunny.8 mph58%30.10 "Hg10 mi
5:56 pm77 °FSunny.12 mph50%30.10 "Hg10 mi
4:56 pm79 °FSunny.12 mph50%30.11 "Hg10 mi
3:56 pm78 °FSunny.12 mph48%30.12 "Hg10 mi
2:56 pm79 °FPassing clouds.14 mph50%30.14 "Hg10 mi
1:56 pm77 °FSunny.10 mph50%30.16 "Hg10 mi
12:56 pm76 °FSunny.12 mph52%30.17 "Hg10 mi
11:56 am74 °FSunny.13 mph57%30.19 "Hg10 mi
10:56 am70 °FSunny.8 mph71%30.21 "Hg10 mi
9:56 am66 °FSunny.6 mph81%30.23 "Hg10 mi
9:05 am61 °FScattered clouds.7 mph88%30.16 "Hg10 mi
8:39 am61 °FLow clouds.7 mph88%30.17 "Hg10 mi
7:56 am58 °FLow clouds.7 mph97%30.24 "Hg10 mi
7:02 am55 °FFog.7 mph100%30.18 "Hg3 mi
6:40 am55 °FFog.No wind100%30.17 "Hg1 mi
5:56 am53 °FFog.No wind96%30.25 "Hg1 mi
5:44 am52 °FFog.No wind100%30.18 "Hg1 mi
5:39 am52 °FFog.No wind100%30.18 "Hg1 mi
4:56 am48 °FPartly sunny.No wind100%30.24 "Hg10 mi
4:31 am48 °FFog.No wind100%30.16 "Hg1 mi
4:24 am48 °FClear.No wind100%30.16 "Hg10 mi
4:00 am50 °FFog.No wind94%30.15 "Hg2 mi
2:56 am51 °FClear.No wind100%30.23 "Hg10 mi
1:56 am52 °FFog.No wind97%30.23 "Hg5 mi
Weather by CustomWeather, © 2020

See weather overview